This demonstration page uses our WeatherBlox Daily Observations layout. Learn more.

Left ArrowRight Arrow

38.20091, -84.87328

Hourly Observations for April 20, 2016

Temp ( °F °C ) Dew Point ( °F °C ) Humidity (%) Winds ( mph kmh ) Pressure ( in mb ) Visibility ( mi km ) Precip ( " mm )
12:53 am 00:53 Clear 68 20 46 7.8 45 45 NE 7 11 30.09 1019 10 16 0.00 0.00
1:53 am 01:53 Clear 65 18.3 48 8.9 54 54 ENE 6 9 30.09 1019 10 16 0.00 0.00
2:53 am 02:53 Clear 64 17.8 48 8.9 56 56 NE 5 7 30.08 1019 10 16 0.00 0.00
3:53 am 03:53 Clear 60 15.6 48 8.9 65 65 NE 3 6 30.08 1019 10 16 0.00 0.00
4:53 am 04:53 Clear 61 16.1 49 9.4 65 65 NE 5 7 30.07 1018 10 16 0.00 0.00
5:53 am 05:53 Partly Cloudy 58 14.4 48 8.9 70 70 NE 3 6 30.08 1019 10 16 0.00 0.00
6:53 am 06:53 Clear 59 15 49 9.4 69 69 ENE 6 9 30.09 1019 10 16 0.00 0.00
7:53 am 07:53 Sunny 60 15.6 50 10 70 70 E 6 9 30.10 1019 10 16 0.00 0.00
8:53 am 08:53 Sunny 62 16.7 50 10 65 65 ENE 6 9 30.10 1019 10 16 0.00 0.00
9:53 am 09:53 Mostly Cloudy 67 19.4 51 10.6 57 57 Calm 30.10 1019 10 16 0.00 0.00
10:53 am 10:53 Sunny 70 21.1 52 11.1 53 53 E 7 11 30.08 1019 10 16 0.00 0.00
11:53 am 11:53 Cloudy 75 23.9 54 12.2 48 48 VRB 5 7 30.08 1019 10 16 0.00 0.00
12:53 pm 12:53 Mostly Sunny 77 25 54 12.2 45 45 SE 5 7 30.05 1018 10 16 0.00 0.00
1:53 pm 13:53 Sunny 81 27.2 48 8.9 32 32 SE 12 19 30.03 1017 10 16 0.00 0.00
2:53 pm 14:53 Sunny 81 27.2 50 10 34 34 SE 9 15 30.01 1016 10 16 0.00 0.00
3:53 pm 15:53 Sunny 83 28.3 45 7.2 26 26 SSW 10 17 29.98 1015 10 16 0.00 0.00
4:53 pm 16:53 Sunny 83 28.3 44 6.7 25 25 S 10 17 29.95 1014 10 16 0.00 0.00
5:53 pm 17:53 Mostly Sunny 83 28.3 44 6.7 25 25 SSE 10 17 29.94 1014 10 16 0.00 0.00
6:53 pm 18:53 Sunny 82 27.8 44 6.7 26 26 S 6 9 29.93 1014 10 16 0.00 0.00
7:53 pm 19:53 Sunny 77 25 49 9.4 37 37 SW 6 9 29.93 1013 10 16 0.00 0.00
8:53 pm 20:53 Clear 73 22.8 49 9.4 43 43 WSW 3 6 29.93 1013 10 16 0.00 0.00
9:53 pm 21:53 Clear 74 23.3 47 8.3 38 38 SW 3 6 29.94 1014 10 16 0.00 0.00
10:53 pm 22:53 Mostly Clear 72 22.2 47 8.3 41 41 SW 5 7 29.95 1014 10 16 0.00 0.00
11:53 pm 23:53 Mostly Clear 69 20.6 47 8.3 45 45 SW 3 6 29.94 1014 10 16 0.00 0.00

Powered by AerisWeather